This is the latest recevied weather packets stored in our database for station/object NO9B. If no packets are shown the sender has not sent any weather packets the latest 1 day(s).
| Time | Temp. | Humidity | Pressure | Rain* | Wind** | Luminosity | Snow |
|---|---|---|---|---|---|---|---|
| 1778053028 | 2.22° C | 76% | 1012 hPa | 0 mm | - | 0 W/m² | - |
| 1778052726 | 2.78° C | 75% | 1011.8 hPa | 0 mm | - | 0 W/m² | - |
| 1778052422 | 2.78° C | 72% | 1012 hPa | 0 mm | - | 0 W/m² | - |
| 1778052120 | 2.78° C | 72% | 1012 hPa | 0 mm | - | 0 W/m² | - |
| 1778051817 | 2.78° C | 71% | 1012 hPa | 0 mm | - | 0 W/m² | - |
| 1778051515 | 2.78° C | 69% | 1012 hPa | 0 mm | - | 0 W/m² | - |
| 1778050607 | 3.33° C | 68% | 1011.9 hPa | 0 mm | - | 0 W/m² | - |
| 1778050303 | 3.89° C | 68% | 1012 hPa | 0 mm | - | 0 W/m² | - |
| 1778050000 | 3.89° C | 68% | 1012.2 hPa | 0 mm | - | 0 W/m² | - |
| 1778049394 | 3.89° C | 66% | 1012 hPa | 0 mm | - | 0 W/m² | - |
| 1778049090 | 4.44° C | 66% | 1012.1 hPa | 0 mm | - | 0 W/m² | - |
| 1778048486 | 4.44° C | 65% | 1011.9 hPa | 0 mm | - | 0 W/m² | - |
| 1778047880 | 5° C | 65% | 1012.1 hPa | 0 mm | - | 0 W/m² | - |
| 1778047578 | 5° C | 63% | 1012 hPa | 0 mm | - | 0 W/m² | - |
| 1778046972 | 5° C | 66% | 1012 hPa | 0 mm | - | 0 W/m² | - |
| 1778046061 | 5° C | 61% | 1012.2 hPa | 0 mm | - | 0 W/m² | - |
| 1778045458 | 5° C | 64% | 1012.3 hPa | 0 mm | - | 0 W/m² | - |
| 1778044853 | 5° C | 61% | 1012.4 hPa | 0 mm | - | 0 W/m² | - |
| 1778044246 | 5° C | 62% | 1012.4 hPa | 0 mm | - | 0 W/m² | - |
| 1778043944 | 5.56° C | 61% | 1012.4 hPa | 0 mm | - | 0 W/m² | - |
| 1778043338 | 5.56° C | 59% | 1012.2 hPa | 0 mm | - | 0 W/m² | - |
| 1778042429 | 6.11° C | 56% | 1012.2 hPa | 0 mm | - | 0 W/m² | - |
| 1778042126 | 6.11° C | 54% | 1012.2 hPa | 0 mm | - | 0 W/m² | - |
| 1778041825 | 6.67° C | 52% | 1012.2 hPa | 0 mm | - | 0 W/m² | - |
| 1778041221 | 6.67° C | 52% | 1012 hPa | 0 mm | - | 0 W/m² | - |
* Rain latest hour (hover to see other rain measurements)
** Current wind speed in m/s (hover to see current wind gust speed)